Theta_e
314 316 316 316 316 315 315 314 314 316 317 318 318 317 316 318 318 319 319 320 320 319 320 319 319 319 318 319 319 319 319 320 323 325 322 322 321 324 323 320 320 326 329 330
316 315 313 313 315 316 316 314 314 315 317 316 315 314 312 313 314 315 315 315 316 316 316 315 315 315 317 318 318 319 319 319 319 320 320 320 321 321 324 324 324 322 323 327
314 312 311 314 314 316 316 315 313 314 316 315 315 313 314 313 314 314 314 315 314 314 314 313 313 313 315 315 316 317 318 318 318 318 320 321 322 323 324 325 322 322 325 325
312 311 311 313 314 317 317 314 314 316 315 311 313 311 311 311 311 311 313 313 312 312 313 313 313 313 314 314 314 315 316 317 318 319 320 320 319 320 320 321 324 325 325 324
312 311 311 313 312 312 313 313 314 314 313 312 311 309 309 312 310 311 312 312 312 313 312 312 312 312 311 312 312 313 315 316 316 316 318 318 319 321 323 327 328 327 327 324
312 312 311 311 311 312 313 313 313 313 312 311 311 309 308 309 310 311 313 313 312 312 312 312 312 311 311 313 313 313 312 312 313 313 313 314 316 319 321 325 326 325 322 322
312 313 313 313 312 312 313 314 315 316 315 311 311 309 309 310 311 311 313 313 313 313 313 312 312 312 312 312 313 313 313 313 313 313 313 313 315 319 323 324 324 322 322 323
312 312 313 313 313 313 313 313 315 312 315 313 312 311 310 311 311 312 312 312 311 311 313 312 312 312 312 312 313 313 314 316 316 316 316 316 316 316 317 319 320 319 315 312
312 312 311 312 312 312 313 313 312 312 307 309 310 311 310 311 311 312 311 311 311 312 313 312 312 312 312 312 313 313 313 313 313 314 314 314 314 314 313 312 311 310 310 309
311 311 310 311 312 312 313 312 313 312 311 311 307 308 309 310 310 310 310 311 311 310 311 312 312 312 312 312 312 312 311 311 310 310 310 310 310 309 309 309 309 309 309 309
309 311 310 311 313 312 313 314 313 313 312 313 311 309 308 309 309 310 311 311 311 310 310 310 311 311 312 312 312 311 309 309 309 309 309 308 308 308 309 309 309 309 309 308
308 311 311 312 309 310 311 312 312 311 313 310 311 310 311 309 309 310 310 311 311 310 310 310 310 310 310 311 312 310 309 309 309 308 309 309 310 309 309 309 309 309 308 308
309 310 312 312 309 309 311 311 311 312 310 311 311 310 310 310 310 310 310 311 311 311 310 310 310 310 309 309 310 312 310 309 309 309 309 309 309 309 309 309 309 308 307 307
309 310 310 310 310 310 310 311 312 311 313 311 311 310 309 310 309 310 310 310 310 309 309 309 309 309 309 309 309 310 310 309 309 309 310 310 310 310 309 309 308 308 308 306
310 309 310 310 310 309 309 310 312 312 312 313 311 311 310 308 307 309 310 310 309 309 309 309 308 308 309 310 309 310 311 310 309 310 310 311 311 310 309 308 308 308 307 305
309 305 308 305 309 307 308 309 310 311 312 311 311 310 309 310 310 310 310 310 309 309 308 309 309 308 308 308 309 309 310 311 310 310 310 310 310 310 310 308 307 306 304 302
308 309 308 307 308 307 309 307 308 308 309 310 311 310 309 307 308 309 310 309 309 308 307 308 308 308 308 308 309 309 309 311 310 309 310 309 309 309 309 307 307 305 301 299
308 307 307 304 301 309 305 305 307 307 307 307 307 307 307 307 308 308 308 308 308 307 307 307 307 307 308 308 308 309 310 309 310 309 308 308 308 308 307 306 305 302 299 298
308 308 309 309 305 304 304 304 304 307 307 307 307 307 307 307 307 306 306 306 306 307 307 307 307 306 306 306 307 308 309 309 308 308 307 306 306 306 304 304 302 299 298 298
306 307 307 308 308 307 305 304 305 304 303 304 304 304 304 305 304 304 306 307 307 306 306 306 305 305 305 306 306 306 308 308 307 306 305 304 303 303 301 301 298 297 297 296
306 307 309 308 308 304 303 303 305 304 305 305 305 305 304 303 305 305 305 304 304 305 304 304 305 305 305 305 305 305 305 305 304 304 303 302 301 299 297 297 296 296 296 295
305 304 305 302 305 305 304 304 304 304 305 305 305 305 305 305 305 303 302 302 302 303 303 303 304 305 304 303 303 304 303 302 301 299 299 299 299 296 295 294 294 294 294 294
304 304 302 304 303 304 306 306 305 305 305 305 305 304 304 303 302 302 301 300 300 299 301 303 303 304 304 302 302 302 303 302 300 298 298 296 295 294 294 294 294 293 293 292
302 302 301 303 303 303 304 304 304 304 304 304 304 304 303 302 302 301 299 299 299 299 300 302 303 302 302 302 301 299 299 299 299 297 295 294 292 292 292 292 292 291 291 291
301 300 299 300 300 301 302 302 302 302 302 301 301 302 301 301 300 298 298 299 300 301 301 301 302 300 299 300 300 298 298 296 296 295 293 291 291 291 290 290 289 289 290 289
298 299 300 300 300 300 301 301 301 301 301 301 301 300 301 300 298 298 298 300 300 300 300 300 300 300 297 296 297 295 294 293 293 291 291 291 290 290 288 288 288 288 287 287
Wind_Speed
8 4 8 11 10 4 4 5 6 4 4 2 6 8 11 16 16 16 18 21 24 26 25 22 22 22 23 23 25 29 28 27 24 25 26 25 25 25 26 23 23 24 25 25
3 6 8 8 10 8 2 6 4 4 5 2 7 11 11 16 15 21 26 28 29 26 27 27 24 24 26 25 25 26 27 28 26 25 26 25 23 23 23 24 23 23 25 27
5 1 10 1 4 8 6 7 5 2 5 8 5 8 15 13 24 30 30 28 26 26 27 25 21 20 18 23 28 29 29 29 26 25 24 24 22 22 23 24 22 21 18 19
6 6 3 3 6 5 8 8 6 4 3 2 3 5 3 6 8 10 20 19 21 18 16 15 15 19 24 24 25 27 25 25 25 25 27 27 27 25 25 23 18 16 18 17
1 4 5 7 5 7 0 6 3 0 3 5 3 4 7 1 4 6 10 11 7 5 9 11 14 18 20 23 25 24 26 27 26 26 27 25 24 23 19 11 13 16 15 14
5 4 5 6 4 5 7 5 4 2 1 3 10 8 4 5 4 4 7 5 4 1 5 6 6 8 10 10 13 16 17 20 22 23 23 24 24 21 18 17 19 18 14 13
5 4 2 2 6 1 6 7 2 1 2 6 2 7 10 5 3 4 5 2 2 3 4 2 3 1 2 2 2 5 9 11 12 14 15 17 20 20 19 21 21 18 16 16
7 5 10 8 6 7 13 9 4 5 3 1 4 5 5 2 10 8 4 2 6 6 4 2 2 3 1 0 1 2 3 5 6 9 11 11 12 14 17 17 17 16 13 12
8 5 11 12 7 7 10 8 2 2 1 1 5 6 8 5 4 5 3 3 5 4 2 4 3 4 4 3 2 4 5 4 4 5 5 5 5 6 7 8 8 9 8 9
3 4 2 4 3 6 2 4 3 1 3 4 5 5 5 5 7 7 9 11 10 7 1 4 5 4 5 5 6 7 6 5 4 4 5 5 6 6 6 5 5 6 7 9
3 2 1 6 8 10 4 4 4 4 4 2 2 2 5 8 9 9 8 4 5 4 5 1 4 8 8 9 10 9 7 7 7 7 6 4 3 1 2 4 5 6 8 10
6 3 4 6 2 2 7 5 9 3 4 3 1 5 2 7 11 8 8 5 4 4 7 9 10 12 14 14 13 11 10 10 9 8 5 2 2 4 5 6 8 10 11 13
8 3 3 3 2 1 6 9 12 9 1 5 4 4 1 8 7 9 8 5 3 8 13 17 17 19 16 17 19 17 15 14 11 8 4 2 4 8 10 11 11 12 14 16
17 4 7 8 3 8 7 11 14 12 6 8 11 6 2 4 6 6 7 4 6 9 15 20 19 22 23 20 20 21 21 19 13 9 7 5 6 8 11 13 14 14 16 18
7 5 4 12 3 3 6 9 15 17 21 9 16 15 13 8 6 9 16 19 13 14 20 22 23 22 26 25 22 22 25 25 21 16 14 12 11 12 14 15 16 18 19 18
5 4 5 3 8 6 2 6 15 20 20 14 20 20 10 17 20 23 25 22 12 16 23 21 24 28 27 29 26 21 23 28 27 26 23 18 14 17 17 18 18 18 17 16
7 5 3 4 5 3 3 15 12 7 14 12 15 17 10 9 15 19 20 15 18 23 26 26 27 29 29 27 29 27 23 27 31 30 27 24 19 21 21 20 20 20 17 15
7 7 4 3 3 8 9 8 15 17 18 14 14 16 20 18 25 26 28 31 33 33 31 29 28 27 26 25 27 29 28 26 30 32 31 27 23 25 23 21 20 19 17 16
12 9 3 5 6 3 7 9 14 12 18 15 16 20 26 23 21 20 25 26 28 28 24 24 22 26 27 26 26 28 31 29 28 32 31 28 25 26 23 20 19 17 16 15
0 6 8 3 4 8 13 13 7 5 4 18 22 13 14 16 6 7 16 8 14 14 12 17 25 27 28 27 24 27 30 30 29 30 30 27 25 25 23 21 18 16 15 14
5 4 11 10 6 5 10 7 10 8 11 19 21 26 25 7 12 6 11 12 16 17 21 23 23 25 27 26 24 23 27 29 30 30 28 27 25 23 21 19 17 15 14 12
9 7 5 3 2 8 23 11 13 16 16 14 3 5 10 10 10 12 16 14 15 19 23 24 25 26 27 26 23 24 26 27 26 25 25 24 22 20 18 16 14 13 12 11
4 8 5 8 7 11 5 8 16 22 16 8 4 6 9 14 17 15 17 19 21 22 24 25 26 26 26 24 22 23 22 22 21 20 19 19 18 17 16 14 12 10 9 9
3 1 3 3 10 7 5 3 4 7 8 13 16 13 13 17 19 23 25 28 28 26 24 25 26 27 23 21 20 20 19 18 17 17 17 17 16 14 12 10 9 7 7 10
6 8 5 4 8 11 21 20 20 19 19 23 22 21 23 18 22 26 29 27 26 26 26 23 23 25 23 19 18 18 18 17 17 16 16 15 13 11 9 7 6 5 9 11
8 5 4 5 5 7 16 16 12 15 21 22 22 25 21 22 32 29 28 25 25 27 26 24 22 24 23 19 17 17 16 16 15 14 14 13 11 8 6 3 6 8 10 11
Wind_Direction
193 179 203 203 216 229 358 294 235 152 78 14 267 265 266 272 267 260 250 250 255 253 251 256 253 251 245 244 247 244 244 236 239 248 253 251 254 261 273 274 263 253 247 256
137 233 229 231 209 234 176 273 271 66 111 83 277 272 272 262 253 251 253 252 253 260 260 263 263 261 251 244 243 245 245 247 243 246 252 254 257 260 265 269 274 268 254 246
188 124 225 183 252 218 194 236 240 226 163 209 256 267 244 259 245 247 249 251 255 259 264 270 264 253 250 249 252 250 246 251 249 249 249 252 250 251 255 260 271 274 271 255
244 251 137 184 229 197 233 213 249 347 41 255 114 285 307 237 232 219 239 246 252 250 251 252 265 259 252 254 251 244 249 243 238 230 239 247 254 252 258 263 267 262 268 272
148 166 179 204 206 190 274 48 71 308 273 309 236 259 261 238 234 234 224 222 161 228 270 270 245 244 246 245 247 246 239 240 237 233 233 238 246 254 255 253 242 248 252 261
304 6 195 209 205 163 112 114 88 41 280 276 218 207 252 206 216 86 94 124 137 269 302 294 287 244 258 259 251 244 235 236 238 240 239 238 241 245 240 231 243 255 261 263
172 203 43 291 126 350 171 155 92 336 202 229 359 211 247 295 132 144 137 114 50 317 288 295 341 308 270 288 267 239 232 236 234 231 226 223 222 228 225 226 239 243 244 245
173 192 176 207 193 186 192 184 155 209 205 295 8 236 262 88 69 149 170 307 313 336 275 254 262 285 301 247 208 183 195 206 206 210 217 222 225 229 234 237 239 242 242 249
187 220 170 181 200 152 198 226 18 8 47 12 211 252 308 199 163 134 125 25 33 58 267 270 282 299 312 283 246 226 211 205 203 198 194 195 202 217 225 233 242 256 274 281
282 110 136 114 244 312 225 162 130 291 201 242 253 228 218 132 133 120 104 83 54 52 73 290 295 278 276 271 259 256 252 236 228 222 220 218 219 223 233 245 264 281 291 299
283 97 157 131 208 189 185 210 208 180 196 217 331 279 340 118 137 127 137 107 42 74 60 3 322 323 312 291 276 264 248 229 215 209 205 197 198 230 299 309 309 309 310 312
195 146 168 187 41 240 218 218 198 159 213 224 54 271 108 121 106 92 101 100 49 40 18 357 336 330 323 308 282 266 251 235 220 208 194 194 322 321 312 309 310 311 311 311
174 209 129 177 300 216 211 216 225 233 95 215 152 258 254 124 140 130 129 129 27 334 335 338 326 319 306 300 290 269 252 238 231 219 204 226 329 320 312 309 307 308 311 313
173 158 211 197 156 149 196 203 212 220 223 221 227 229 132 199 225 209 224 348 351 332 317 308 305 306 305 301 291 273 252 243 235 223 225 252 282 293 293 293 295 304 306 306
183 206 224 258 299 210 182 193 204 211 226 208 238 231 243 250 262 319 307 306 312 305 295 291 295 298 298 294 293 279 257 248 243 243 245 251 270 280 284 290 294 295 294 296
196 230 186 263 243 211 172 197 203 216 233 242 248 255 259 290 290 285 285 289 286 283 277 280 283 291 295 295 291 283 271 252 248 248 249 253 267 274 276 280 282 284 286 290
185 164 150 248 194 226 232 219 223 227 232 230 242 252 257 250 251 257 266 271 269 275 281 279 278 281 289 288 291 284 276 261 252 251 252 253 261 264 264 267 274 276 277 280
204 188 165 236 80 221 236 191 211 227 239 244 263 264 255 261 266 271 279 276 276 279 279 280 286 288 288 286 283 284 278 267 256 252 249 249 254 256 254 256 260 261 263 269
217 205 226 202 200 268 317 225 207 200 242 239 243 254 257 267 273 273 274 278 278 280 287 287 293 293 290 284 276 276 274 273 263 254 250 249 253 253 249 250 250 250 256 268
275 229 198 181 220 219 238 235 198 143 274 246 238 265 262 263 266 270 284 285 304 302 302 305 303 292 290 289 282 272 269 264 262 254 250 250 252 248 243 245 244 247 257 269
181 181 224 208 218 277 253 130 168 162 233 256 248 244 256 249 252 298 300 312 315 303 302 310 302 296 293 286 278 266 258 256 254 250 251 250 244 240 239 239 240 246 256 269
176 173 208 203 255 258 251 162 194 231 254 266 307 219 267 279 288 300 303 313 316 311 308 302 300 294 288 285 273 259 254 254 251 249 245 241 238 238 237 238 245 253 264 278
189 189 177 180 206 243 124 234 245 245 263 267 248 240 250 274 287 293 298 305 306 305 303 301 291 287 283 277 265 258 253 250 250 246 239 234 231 231 234 239 248 263 280 301
274 233 191 106 252 265 314 290 264 280 264 266 265 253 263 277 283 288 294 298 300 298 292 296 286 276 269 266 258 250 247 240 236 232 229 226 227 229 232 241 251 270 294 295
192 156 179 253 283 320 288 281 275 273 270 271 270 263 269 255 276 296 294 295 296 292 290 288 280 269 257 249 248 244 238 232 226 220 220 220 220 224 227 233 256 289 291 290
186 169 174 226 166 208 249 257 264 269 271 273 270 270 260 279 294 295 289 290 294 295 289 279 266 257 251 241 232 225 223 222 217 217 213 213 215 216 232 266 270 277 288 297